[[{"header":{"parameterUnit":"m.s-1","parameterCategory":1,"la1":30.2991,"la2":30.254,"lo1":-89.0895,"lo2":-89.0444,"dy":0.0017,"dx":0.0017,"nx":28,"ny":28,"refTime":"2025-08-30T09:00:00:Z","depth":0,"parameterNumber":2,"parameterNumberName":"U-component_of_WINDS"},"data":[0,0,0,0,0,0,0,0,0,0,0,0,0,0,0,0,0,0,0,0,0,0,0,0,0,0,0,0,0,0,0,0,0,0,0,0,0,0,0,0,0,0,0,0,0,0,0,0,0,0,0,0,0,0,0,0,0,0,-0.9506,-0.9505,0,-0.9406,-0.9405,-0.9404,-0.9374,-0.9375,-0.9375,-0.9376,-0.9272,-0.9269,-0.9266,0,0,0,0,0,0,0,0,0,0,0,0,0,-0.9673,-0.967,-0.9506,-0.9505,-0.9504,-0.9406,-0.9405,-0.9403,-0.9374,-0.9375,-0.9375,-0.9376,-0.9273,-0.927,-0.9266,0,0,0,0,0,0,0,0,0,0,0,0,0,-0.9589,-0.9669,-0.9507,-0.9477,-0.9474,-0.9406,-0.9405,-0.9403,-0.9374,-0.9375,-0.9375,-0.9376,-0.9275,-0.927,-0.9265,-0.9219,0,0,-0.925,-0.9248,0,0,0,0,0,0,0,0,-0.9594,-0.9583,-0.9483,-0.9479,-0.9475,-0.9403,-0.9425,-0.9341,-0.9374,-0.9412,-0.9376,-0.9377,-0.9315,-0.9307,-0.9286,-0.9214,-0.921,-0.925,-0.9247,-0.9245,-0.9243,0,0,0,0,0,0,0,-0.96,-0.9587,-0.9467,-0.9482,-0.9477,-0.9469,-0.9458,-0.9409,-0.936,-0.9409,-0.9406,-0.9395,-0.9313,-0.9291,-0.9284,-0.9208,-0.925,-0.9246,-0.9243,-0.9241,-0.9094,-0.9093,0,0,0,0,0,0,-0.9611,-0.9592,-0.947,-0.9464,-0.9538,-0.9466,-0.9453,-0.9426,-0.9361,-0.9352,-0.9394,-0.9394,-0.9299,-0.929,-0.928,-0.9222,-0.9245,-0.924,-0.9237,-0.9095,-0.9094,-0.9093,0,0,0,0,0,0,-0.9614,-0.96,-0.9474,-0.9527,-0.9511,-0.9462,-0.9431,-0.9423,-0.9401,-0.935,-0.9341,-0.9381,-0.9299,-0.9287,-0.9235,-0.9218,-0.9238,-0.9234,-0.9096,-0.9095,-0.9093,-0.9105,0,0,0,0,0,0,-0.9619,-0.9602,-0.9583,-0.9527,-0.9508,-0.943,-0.943,-0.9421,-0.9393,-0.9391,-0.9335,-0.9326,-0.9299,-0.9242,-0.923,-0.9211,-0.923,-0.9097,-0.9095,-0.9094,-0.9106,-0.9104,-0.9103,0,0,0,0,0,-0.9625,-0.9591,-0.9583,-0.9568,-0.9484,-0.9429,-0.9418,-0.9388,-0.9392,-0.9373,-0.934,-0.9328,-0.9222,-0.9237,-0.9223,-0.9203,-0.9098,-0.9096,-0.9094,-0.9107,-0.9105,-0.9103,0,0,0,0,0,0,-0.9646,-0.9583,-0.9573,-0.9519,-0.948,-0.9424,-0.94,-0.9386,-0.9345,-0.9345,-0.9309,-0.9297,-0.9247,-0.922,-0.9238,-0.9155,-0.916,-0.9155,-0.9174,-0.9172,-0.917,-0.9177,-0.9226,0,0,0,0,0,-0.9644,-0.9605,-0.9552,-0.9509,-0.949,-0.9449,-0.9423,-0.9403,-0.9361,-0.9344,-0.9307,-0.9267,-0.9224,-0.9197,-0.9155,-0.9103,-0.909,-0.9082,-0.908,-0.9079,-0.9075,-0.9045,-0.9041,-0.9085,-0.9085,-0.9085,0,0,-0.964,-0.9601,-0.9578,-0.9512,-0.9479,-0.9439,-0.9434,-0.9392,-0.9362,-0.9337,-0.9286,-0.9258,-0.921,-0.9158,-0.9133,-0.9133,-0.906,-0.9077,-0.9076,-0.9072,-0.9043,-0.9038,-0.9035,-0.9084,-0.9084,-0.9084,0,0,-0.9612,-0.9578,-0.9539,-0.9507,-0.9457,-0.943,-0.9421,-0.9367,-0.9348,-0.9295,-0.9276,-0.924,-0.9168,-0.9134,-0.9108,-0.9069,-0.9056,-0.9056,-0.9047,-0.9019,-0.9015,-0.9012,-0.8997,-0.8993,-0.9052,-0.9052,-0.9052,0,-0.9612,-0.9551,-0.9521,-0.9479,-0.9451,-0.9428,-0.9388,-0.9358,-0.9297,-0.9278,-0.928,-0.9189,-0.9156,-0.9095,-0.9086,-0.9065,-0.9053,-0.9062,-0.9018,-0.9015,-0.9011,-0.8997,-0.8991,-0.9053,-0.9053,-0.9053,-0.9053,0,-0.9555,-0.9512,-0.9487,-0.9429,-0.9398,-0.9358,-0.9321,-0.9294,-0.9277,-0.925,-0.9197,-0.9156,-0.9106,-0.909,-0.9073,-0.9027,-0.9029,-0.9025,-0.9029,-0.9008,-0.8994,-0.8988,-0.9053,-0.9053,-0.9053,-0.9053,0,0,-0.9534,-0.9461,-0.9452,-0.9426,-0.937,-0.9337,-0.9296,-0.9247,-0.9224,-0.9184,-0.9148,-0.9088,-0.9084,-0.9054,-0.9034,-0.9009,-0.898,-0.9008,-0.9006,-0.9004,-0.8926,-0.8929,-0.8923,-0.8972,-0.8971,-0.897,-0.893,0,-0.9498,-0.9424,-0.9396,-0.9335,-0.9295,-0.9274,-0.9238,-0.92,-0.9174,-0.9137,-0.9108,-0.9066,-0.9064,-0.9046,-0.9021,-0.8989,-0.8964,-0.8992,-0.8938,-0.8936,-0.8949,-0.8916,-0.8918,-0.8882,-0.8925,-0.8924,-0.8923,0,-0.9446,-0.9405,-0.934,-0.929,-0.9272,-0.924,-0.9193,-0.9158,-0.9115,-0.9098,-0.9066,-0.9047,-0.9003,-0.9011,-0.895,-0.897,-0.8947,-0.8928,-0.8926,-0.8918,-0.8927,-0.8907,-0.887,-0.8865,-0.8914,-0.8915,-0.8915,0,-0.9437,-0.9366,-0.9318,-0.9296,-0.9236,-0.9214,-0.9189,-0.9146,-0.9119,-0.9078,-0.906,-0.9015,-0.8989,-0.8955,-0.8925,-0.8933,-0.8867,-0.8872,-0.8851,-0.8852,-0.8836,-0.8838,-0.8795,-0.8824,-0.8824,-0.8824,-0.8824,0,-0.9398,-0.9359,-0.9313,-0.9283,-0.9239,-0.9207,-0.9165,-0.9137,-0.91,-0.9065,-0.9044,-0.9012,-0.8974,-0.8937,-0.8913,-0.8866,-0.8855,-0.884,-0.8834,-0.8841,-0.8843,-0.8824,-0.8826,-0.8822,-0.8823,-0.8823,-0.8823,0,-0.938,-0.9347,-0.9293,-0.9242,-0.9228,-0.9198,-0.9153,-0.9124,-0.9098,-0.9053,-0.9041,-0.9,-0.8955,-0.8922,-0.8863,-0.8848,-0.8797,-0.8792,-0.8812,-0.8808,-0.8789,-0.8791,-0.8732,-0.8722,-0.8759,-0.8758,-0.8758,0,-0.9357,-0.9326,-0.9272,-0.9247,-0.9221,-0.9181,-0.9153,-0.9122,-0.9093,-0.9043,-0.9019,-0.8973,-0.8934,-0.8864,-0.8828,-0.8784,-0.8776,-0.8759,-0.8769,-0.8778,-0.8775,-0.8777,-0.8773,-0.8757,-0.8757,-0.8756,-0.8756,0,-0.9319,-0.9305,-0.9265,-0.922,-0.9188,-0.9151,-0.9113,-0.9094,-0.9056,-0.9026,-0.898,-0.895,-0.8891,-0.8845,-0.8797,-0.8771,-0.8757,-0.8754,-0.8746,-0.8752,-0.8765,-0.8757,-0.8806,-0.8755,-0.8755,-0.8755,-0.8755,-0.8755,-0.9297,-0.9269,-0.9226,-0.9183,-0.9152,-0.9118,-0.9088,-0.9058,-0.9019,-0.8969,-0.8953,-0.8905,-0.8864,-0.8798,-0.8772,-0.8734,-0.8734,-0.8724,-0.8721,-0.8718,-0.8718,-0.8772,-0.8725,-0.8725,-0.8725,-0.8725,-0.8725,0,-0.9258,-0.923,-0.919,-0.9139,-0.9105,-0.9096,-0.9055,-0.9027,-0.8985,-0.8948,-0.8911,-0.8858,-0.8814,-0.8776,-0.873,-0.8707,-0.87,-0.8696,-0.8697,-0.8691,-0.8721,-0.8732,-0.8703,-0.8703,-0.8703,-0.8703,-0.8703,-0.8703,-0.9233,-0.9185,-0.9166,-0.9103,-0.9075,-0.9028,-0.9005,-0.8973,-0.8943,-0.8886,-0.8849,-0.8825,-0.8787,-0.8739,-0.8698,-0.8688,-0.8672,-0.867,-0.8658,-0.8686,-0.8689,-0.8691,-0.8701,-0.8667,-0.8666,-0.8631,-0.863,-0.863]},{"header":{"parameterUnit":"m.s-1","parameterCategory":1,"la1":30.2991,"la2":30.254,"lo1":-89.0895,"lo2":-89.0444,"dy":0.0017,"dx":0.0017,"nx":28,"ny":28,"refTime":"2025-08-30T09:00:00:Z","depth":0,"parameterNumber":3,"parameterNumberName":"V-component_of_WINDS"},"data":[0,0,0,0,0,0,0,0,0,0,0,0,0,0,0,0,0,0,0,0,0,0,0,0,0,0,0,0,0,0,0,0,0,0,0,0,0,0,0,0,0,0,0,0,0,0,0,0,0,0,0,0,0,0,0,0,0,0,0.0292,0.029,0,0.0146,0.0144,0.0142,0.0027,0.0026,0.0025,0.0024,-0.0127,-0.0129,-0.0132,0,0,0,0,0,0,0,0,0,0,0,0,0,0.0468,0.0466,0.0292,0.029,0.0288,0.0146,0.0144,0.0142,0.0028,0.0026,0.0025,0.0024,-0.0126,-0.0129,-0.0133,0,0,0,0,0,0,0,0,0,0,0,0,0,0.0364,0.0465,0.0292,0.0214,0.0205,0.0146,0.0144,0.0141,0.0028,0.0026,0.0024,0.0023,-0.0124,-0.0129,-0.0133,-0.0127,0,0,-0.0147,-0.0149,0,0,0,0,0,0,0,0,0.037,0.0358,0.0227,0.0219,0.021,0.0103,0.0151,0.0051,0.0028,0.0095,0.0024,0.0022,-0.0049,-0.006,-0.0083,-0.0134,-0.014,-0.0147,-0.015,-0.0152,-0.0153,0,0,0,0,0,0,0,0.0378,0.0363,0.0234,0.0225,0.0215,0.0185,0.0168,0.0131,0.0034,0.0089,0.0081,0.0065,-0.0054,-0.0079,-0.0088,-0.0143,-0.0147,-0.0151,-0.0154,-0.0155,-0.02,-0.0198,0,0,0,0,0,0,0.0397,0.037,0.0238,0.0229,0.0287,0.0183,0.0165,0.0139,0.0034,0.0017,0.0067,0.006,-0.007,-0.0082,-0.0093,-0.0096,-0.0152,-0.0156,-0.0158,-0.0201,-0.0199,-0.0198,0,0,0,0,0,0,0.0401,0.0387,0.0244,0.0297,0.0277,0.0182,0.0154,0.0137,0.0112,0.0017,-0.0001,0.0059,-0.0072,-0.0087,-0.0119,-0.0103,-0.0158,-0.0162,-0.0203,-0.0201,-0.0199,-0.0099,0,0,0,0,0,0,0.0407,0.0389,0.0391,0.0298,0.0275,0.0223,0.0155,0.0135,0.0105,0.0095,0.0006,-0.0011,-0.0075,-0.0111,-0.0123,-0.011,-0.0165,-0.0205,-0.0202,-0.0199,-0.0104,-0.0093,-0.0084,0,0,0,0,0,0.0414,0.0426,0.0392,0.0377,0.0276,0.0224,0.0211,0.0137,0.0107,0.0107,0.0046,-0.0008,-0.0102,-0.0114,-0.0128,-0.0116,-0.0206,-0.0203,-0.02,-0.0108,-0.0095,-0.0085,0,0,0,0,0,0,0.0524,0.0412,0.0374,0.0356,0.03,0.0205,0.0204,0.0154,0.0106,0.0098,0.0009,-0.001,-0.0033,-0.0077,-0.0088,-0.0117,-0.0161,-0.0161,-0.0087,-0.0076,-0.0066,-0.0056,-0.0169,0,0,0,0,0,0.0546,0.0514,0.0418,0.0412,0.0386,0.03,0.0275,0.0223,0.0162,0.0138,0.0074,0.0016,-0.0028,-0.0054,-0.0099,-0.0111,-0.0134,-0.011,-0.01,-0.0091,-0.009,-0.0103,-0.0095,-0.0187,-0.0187,-0.0187,0,0,0.0591,0.0527,0.0512,0.0432,0.0383,0.0351,0.0281,0.0251,0.0225,0.0133,0.0098,0.005,-0.0021,-0.0044,-0.0057,-0.0082,-0.007,-0.0087,-0.008,-0.0083,-0.0099,-0.009,-0.0082,-0.0185,-0.0185,-0.0185,0,0,0.0657,0.0606,0.0594,0.0545,0.0471,0.0413,0.0411,0.0322,0.0286,0.025,0.0179,0.0147,0.0076,0.0027,-0.0007,0.0037,-0.0015,0.0025,0.0076,0.0064,0.0071,0.0077,0.009,0.0097,0.0027,0.0027,0.0028,0,0.0723,0.0672,0.0594,0.0566,0.0532,0.0446,0.0432,0.0389,0.0304,0.0282,0.0255,0.0161,0.0108,0.0071,0.0082,0.0058,0.005,0.0035,0.0077,0.0082,0.0086,0.0098,0.0103,0.0033,0.0032,0.0031,0.0031,0,0.0755,0.0721,0.0719,0.0639,0.0604,0.0584,0.0501,0.0475,0.0426,0.0371,0.0334,0.0266,0.0205,0.0192,0.0144,0.0148,0.0134,0.0094,0.0047,0.0102,0.0111,0.0115,0.004,0.0038,0.0037,0.0035,0,0,0.0887,0.0762,0.0762,0.0723,0.0634,0.0605,0.058,0.0519,0.0498,0.0442,0.0416,0.0357,0.0317,0.0279,0.0224,0.0214,0.025,0.0174,0.0171,0.0188,0.0246,0.0276,0.0282,0.0215,0.0216,0.0216,0.0251,0,0.0937,0.0887,0.0814,0.0787,0.0752,0.0669,0.0646,0.0589,0.0536,0.0498,0.0439,0.0397,0.035,0.0325,0.0312,0.0249,0.026,0.0245,0.0188,0.0187,0.0207,0.0287,0.0319,0.0356,0.0254,0.0255,0.0255,0,0.0989,0.0936,0.0906,0.0816,0.0799,0.078,0.0717,0.0683,0.0614,0.0576,0.0532,0.0472,0.0439,0.0398,0.0349,0.034,0.0312,0.0278,0.0277,0.0268,0.0224,0.0278,0.0366,0.0371,0.0261,0.026,0.026,0,0.1085,0.1007,0.0977,0.0947,0.0843,0.0831,0.0787,0.0716,0.0684,0.0628,0.0606,0.0548,0.0516,0.0471,0.0396,0.0374,0.0355,0.0308,0.032,0.0322,0.0319,0.032,0.0401,0.0305,0.0305,0.0305,0.0304,0,0.1147,0.1132,0.1019,0.1001,0.0979,0.0895,0.0876,0.0824,0.0762,0.0731,0.0656,0.0628,0.0532,0.0492,0.0434,0.04,0.0387,0.0354,0.0338,0.0359,0.0363,0.0339,0.0333,0.0306,0.0306,0.0305,0.0305,0,0.1251,0.1175,0.1137,0.1041,0.1016,0.1004,0.0921,0.0899,0.0841,0.0803,0.0789,0.0697,0.0647,0.0568,0.0494,0.0454,0.043,0.0405,0.0453,0.0443,0.0459,0.0457,0.0526,0.0529,0.0434,0.0435,0.0435,0,0.1295,0.128,0.1182,0.1156,0.1114,0.1073,0.1038,0.0955,0.0922,0.0841,0.0828,0.0771,0.0721,0.0644,0.057,0.0512,0.0484,0.0512,0.0475,0.0496,0.0481,0.0482,0.0479,0.052,0.0522,0.0523,0.0524,0,0.138,0.1343,0.1296,0.1236,0.1197,0.1146,0.109,0.1073,0.0976,0.0943,0.089,0.0851,0.0774,0.0718,0.065,0.0602,0.0546,0.0536,0.0535,0.0556,0.0584,0.0566,0.0474,0.0535,0.0534,0.0533,0.0533,0.0532,0.1453,0.1435,0.1362,0.1312,0.1261,0.1211,0.1185,0.1123,0.1077,0.1008,0.0961,0.091,0.0838,0.0741,0.0696,0.0654,0.063,0.063,0.0629,0.063,0.0636,0.0592,0.0641,0.0641,0.064,0.064,0.064,0,0.1532,0.1481,0.1436,0.136,0.132,0.1271,0.1207,0.1176,0.1132,0.107,0.1022,0.0959,0.0904,0.0825,0.0763,0.0744,0.0716,0.073,0.073,0.0719,0.0663,0.0668,0.0753,0.0753,0.0753,0.0753,0.0753,0.0753,0.1569,0.1534,0.1488,0.1427,0.1375,0.1324,0.1291,0.1243,0.1193,0.1126,0.108,0.1029,0.0959,0.0891,0.0836,0.0814,0.0794,0.0815,0.0785,0.0734,0.0723,0.0714,0.0718,0.0812,0.0812,0.0845,0.0845,0.0845]}]]